When you browse on this site, cookies collect data to enhance your experience and personalize the content and advertising you see.
Visit our Privacy Policy to learn more. By continuing to use the site, you agree to this use of cookies and data.
  • In United Kingdom
  • List of Countries
  • For 7 days
  • Water Temperature
  • Satellite Maps
  • Weather Map
  • Weather Widgets
  • user-avatar
    Login

    Hourly Weather Brisbane

    Today, 24 July, Wednesday

    Time Temperature Precipitation Wind Pressure Humidity
    00:00 +15°C° 0 mm 1 mps 764 mmHg 71%
    01:00 +15°C° 0 mm 1 mps 764 mmHg 71%
    02:00 +14°C° 0 mm 1 mps 764 mmHg 71%
    03:00 +14°C° 0 mm 1 mps 764 mmHg 70%
    04:00 +14°C° 0 mm 1 mps 763 mmHg 68%
    05:00 +13°C° 0 mm 1 mps 764 mmHg 67%
    06:00 +13°C° 0 mm 1 mps 764 mmHg 67%
    07:00 +13°C° 0 mm 2 mps 764 mmHg 66%
    08:00 +16°C° 0 mm 2 mps 764 mmHg 57%
    09:00 +18°C° 0 mm 2 mps 764 mmHg 48%
    10:00 +23°C° 0 mm 1 mps 764 mmHg 38%
    11:00 +24°C° 0 mm 2 mps 764 mmHg 33%
    12:00 +25°C° 0 mm 2 mps 763 mmHg 28%
    13:00 +26°C° 0 mm 3 mps 763 mmHg 24%
    14:00 +26°C° 0 mm 3 mps 762 mmHg 25%
    15:00 +26°C° 0 mm 3 mps 762 mmHg 27%
    16:00 +25°C° 0 mm 2 mps 762 mmHg 28%
    17:00 +22°C° 0 mm 3 mps 763 mmHg 31%
    18:00 +21°C° 0 mm 3 mps 763 mmHg 34%
    19:00 +19°C° 0 mm 3 mps 764 mmHg 37%
    20:00 +18°C° 0 mm 3 mps 764 mmHg 40%
    21:00 +17°C° 0 mm 3 mps 764 mmHg 43%
    22:00 +17°C° 0 mm 4 mps 764 mmHg 47%
    23:00 +16°C° 0 mm 3 mps 764 mmHg 50%

    Tomorrow, 25 July, Thursday

    Time Temperature Precipitation Wind Pressure Humidity
    00:00 +14°C° 0 mm 3 mps 764 mmHg 53%
    01:00 +13°C° 0 mm 3 mps 764 mmHg 56%
    02:00 +13°C° 0 mm 3 mps 764 mmHg 59%
    03:00 +13°C° 0 mm 2 mps 764 mmHg 61%
    04:00 +13°C° 0 mm 2 mps 764 mmHg 63%
    05:00 +13°C° 0 mm 2 mps 765 mmHg 65%
    06:00 +13°C° 0 mm 2 mps 765 mmHg 66%
    07:00 +13°C° 0 mm 2 mps 766 mmHg 68%
    08:00 +15°C° 0 mm 2 mps 766 mmHg 64%
    09:00 +17°C° 0 mm 2 mps 766 mmHg 61%
    10:00 +19°C° 0 mm 2 mps 766 mmHg 58%
    11:00 +20°C° 0 mm 2 mps 766 mmHg 56%
    12:00 +21°C° 0 mm 2 mps 765 mmHg 54%
    13:00 +24°C° 0 mm 3 mps 765 mmHg 51%
    14:00 +22°C° 0.1 mm 3 mps 765 mmHg 56%
    15:00 +21°C° 0.1 mm 3 mps 765 mmHg 60%
    16:00 +21°C° 0.1 mm 3 mps 765 mmHg 64%
    17:00 +19°C° 0.1 mm 3 mps 765 mmHg 71%
    18:00 +18°C° 0.1 mm 3 mps 765 mmHg 77%
    19:00 +17°C° 0.1 mm 3 mps 766 mmHg 83%
    20:00 +17°C° 0.1 mm 3 mps 766 mmHg 84%
    21:00 +17°C° 0.1 mm 2 mps 766 mmHg 85%
    22:00 +16°C° 0.1 mm 2 mps 767 mmHg 86%
    23:00 +16°C° 0.1 mm 2 mps 766 mmHg 86%

    Day after tomorrow, 26 July, Friday

    Time Temperature Precipitation Wind Pressure Humidity
    00:00 +16°C° 0.1 mm 2 mps 766 mmHg 87%
    01:00 +15°C° 0.1 mm 1 mps 766 mmHg 88%
    02:00 +15°C° 0 mm 1 mps 766 mmHg 88%
    03:00 +15°C° 0 mm 1 mps 765 mmHg 87%
    04:00 +14°C° 0 mm 1 mps 765 mmHg 87%
    05:00 +14°C° 0 mm 1 mps 765 mmHg 87%
    06:00 +14°C° 0 mm 1 mps 766 mmHg 87%
    07:00 +14°C° 0 mm 1 mps 766 mmHg 87%
    08:00 +16°C° 0 mm 1 mps 766 mmHg 79%
    09:00 +19°C° 0 mm 1 mps 766 mmHg 71%
    10:00 +21°C° 0 mm 1 mps 766 mmHg 64%
    11:00 +22°C° 0 mm 1 mps 765 mmHg 59%
    12:00 +23°C° 0 mm 1 mps 765 mmHg 55%
    13:00 +24°C° 0 mm 1 mps 764 mmHg 50%
    14:00 +23°C° 0.1 mm 1 mps 764 mmHg 52%
    15:00 +23°C° 0.1 mm 1 mps 764 mmHg 54%
    16:00 +21°C° 0.1 mm 2 mps 764 mmHg 56%
    17:00 +20°C° 0 mm 2 mps 764 mmHg 61%
    18:00 +18°C° 0 mm 2 mps 764 mmHg 67%
    19:00 +17°C° 0 mm 2 mps 765 mmHg 72%
    20:00 +17°C° 0 mm 2 mps 765 mmHg 75%
    21:00 +16°C° 0 mm 1 mps 765 mmHg 78%
    22:00 +16°C° 0 mm 1 mps 765 mmHg 81%
    23:00 +15°C° 0 mm 1 mps 765 mmHg 82%

    27 July, Saturday

    Time Temperature Precipitation Wind Pressure Humidity
    00:00 +15°C° 0 mm 1 mps 765 mmHg 83%
    01:00 +15°C° 0 mm 1 mps 764 mmHg 85%
    02:00 +14°C° 0 mm 1 mps 764 mmHg 85%
    03:00 +14°C° 0 mm 1 mps 764 mmHg 86%
    04:00 +14°C° 0 mm 1 mps 764 mmHg 86%
    05:00 +14°C° 0 mm 1 mps 764 mmHg 86%
    06:00 +14°C° 0 mm 1 mps 765 mmHg 86%
    07:00 +14°C° 0 mm 1 mps 765 mmHg 86%
    08:00 +16°C° 0 mm 1 mps 765 mmHg 77%
    09:00 +19°C° 0 mm 1 mps 765 mmHg 68%
    10:00 +21°C° 0 mm 2 mps 765 mmHg 59%
    11:00 +23°C° 0 mm 2 mps 765 mmHg 54%
    12:00 +24°C° 0 mm 2 mps 764 mmHg 49%
    13:00 +25°C° 0 mm 2 mps 763 mmHg 44%
    14:00 +24°C° 0 mm 2 mps 763 mmHg 47%
    15:00 +24°C° 0 mm 2 mps 763 mmHg 50%
    16:00 +23°C° 0 mm 2 mps 763 mmHg 53%
    17:00 +21°C° 0 mm 2 mps 763 mmHg 58%
    18:00 +19°C° 0 mm 2 mps 763 mmHg 64%
    19:00 +18°C° 0 mm 2 mps 764 mmHg 69%
    20:00 +17°C° 0 mm 2 mps 764 mmHg 70%
    21:00 +16°C° 0 mm 2 mps 764 mmHg 71%
    22:00 +16°C° 0 mm 2 mps 765 mmHg 72%
    23:00 +15°C° 0 mm 2 mps 765 mmHg 70%

    28 July, Sunday

    Time Temperature Precipitation Wind Pressure Humidity
    00:00 +15°C° 0 mm 2 mps 764 mmHg 67%
    01:00 +14°C° 0 mm 2 mps 764 mmHg 65%
    02:00 +14°C° 0 mm 2 mps 764 mmHg 65%
    03:00 +13°C° 0 mm 2 mps 764 mmHg 66%
    04:00 +13°C° 0 mm 2 mps 764 mmHg 66%
    05:00 +13°C° 0 mm 2 mps 764 mmHg 67%
    06:00 +12°C° 0 mm 2 mps 765 mmHg 68%
    07:00 +12°C° 0 mm 1 mps 765 mmHg 70%
    08:00 +15°C° 0 mm 1 mps 765 mmHg 64%
    09:00 +18°C° 0 mm 1 mps 765 mmHg 59%
    10:00 +21°C° 0 mm 1 mps 765 mmHg 54%
    11:00 +22°C° 0 mm 1 mps 764 mmHg 52%
    12:00 +23°C° 0 mm 1 mps 764 mmHg 50%
    13:00 +24°C° 0 mm 1 mps 763 mmHg 48%
    14:00 +24°C° 0.1 mm 2 mps 763 mmHg 52%
    15:00 +23°C° 0.1 mm 2 mps 763 mmHg 56%
    16:00 +21°C° 0.1 mm 3 mps 762 mmHg 60%
    17:00 +20°C° 0 mm 3 mps 763 mmHg 67%
    18:00 +19°C° 0 mm 2 mps 763 mmHg 75%
    19:00 +17°C° 0 mm 2 mps 764 mmHg 83%
    20:00 +17°C° 0 mm 2 mps 764 mmHg 84%
    21:00 +16°C° 0 mm 2 mps 764 mmHg 85%
    22:00 +16°C° 0 mm 2 mps 765 mmHg 86%
    23:00 +16°C° 0 mm 2 mps 764 mmHg 87%

    29 July, Monday

    Time Temperature Precipitation Wind Pressure Humidity
    00:00 +15°C° 0 mm 2 mps 764 mmHg 88%
    01:00 +15°C° 0 mm 2 mps 764 mmHg 89%
    02:00 +14°C° 0 mm 2 mps 764 mmHg 89%
    03:00 +14°C° 0 mm 2 mps 764 mmHg 89%
    04:00 +14°C° 0 mm 2 mps 764 mmHg 89%
    05:00 +14°C° 0 mm 2 mps 764 mmHg 89%
    06:00 +14°C° 0 mm 2 mps 764 mmHg 89%
    07:00 +14°C° 0 mm 2 mps 765 mmHg 89%
    08:00 +16°C° 0 mm 2 mps 765 mmHg 80%
    09:00 +18°C° 0 mm 2 mps 765 mmHg 72%
    10:00 +20°C° 0 mm 2 mps 765 mmHg 63%
    11:00 +21°C° 0.2 mm 2 mps 764 mmHg 62%
    12:00 +21°C° 0.2 mm 3 mps 763 mmHg 60%
    13:00 +22°C° 0.2 mm 3 mps 763 mmHg 59%
    14:00 +21°C° 0.3 mm 3 mps 762 mmHg 62%
    15:00 +21°C° 0.3 mm 3 mps 762 mmHg 65%
    16:00 +20°C° 0.3 mm 3 mps 762 mmHg 69%
    17:00 +19°C° 0 mm 3 mps 762 mmHg 72%
    18:00 +18°C° 0 mm 2 mps 763 mmHg 75%
    19:00 +17°C° 0 mm 2 mps 763 mmHg 79%
    20:00 +18°C° 0 mm 1 mps 763 mmHg 81%
    21:00 +16°C° 0 mm 1 mps 763 mmHg 82%
    22:00 +16°C° 0 mm 1 mps 763 mmHg 84%
    23:00 +15°C° 0 mm 1 mps 763 mmHg 85%
    Show more